Home   Weather   Tübingen   Past weeks

Flag for Germany Past Weather in Tübingen, Baden-Württemberg, Germany — Yesterday and Last 2 Weeks

Now
43 °F

Clear.


Feels Like: 43 °F
Forecast: 35 / 62 °F
Wind: 2 mph from East

Location: Stuttgart-Echterdingen

Current Time: Apr 29, 2017 at 11:58:47 pm

Latest Report: Apr 29, 2017 at 11:20 pm


Visibility: 10 mi

Pressure: 29.98 "Hg

Humidity: 76%

Dew Point: 36 °F

Location of TübingenLocation

Past Weather in Tübingen — Graph

°F

Tübingen Temperature Yesterday

Maximum temperature yesterday: 52 °F (at 4:50 pm)
Minimum temperature yesterday: 39 °F (at 12:20 am)
Average temperature yesterday: 44 °F

High & Low Weather Summary for the Past Weeks

 TemperatureHumidityPressure
High66 °F (Apr 24, 5:50 pm)100% (Apr 18, 9:20 pm)30.54 "Hg (Apr 18, 9:20 pm)
Low27 °F (Apr 20, 5:20 am)27% (Apr 21, 4:50 pm)29.74 "Hg (Apr 25, 2:20 am)
Average43 °F72%30.10 "Hg
* Reported Apr 14 10:20 pm — Apr 29 10:50 pm, Tübingen, Weather by CustomWeather, © 2017

Note: Actual official high and low records may vary slightly from our data, if they occured in-between our weather recording intervals... More about our weather records

Advertising

Tübingen Weather History for the Previous 24 Hours

Scroll right to see more
 ConditionsComfort  
Time TempWeatherWind HumidityBarometerVisibility
10:50 pm
Sat, Apr 29
45 °FClear.2 mph71%29.98 "Hg10 mi
10:20 pm45 °FClear.2 mph71%29.98 "Hg10 mi
9:50 pm45 °FClear.5 mph71%29.98 "Hg10 mi
9:20 pm46 °FClear.3 mph66%29.98 "Hg10 mi
8:50 pm48 °FClear.5 mph62%29.98 "Hg10 mi
8:20 pm50 °FSunny.7 mph58%29.98 "Hg10 mi
7:50 pm54 °FPassing clouds.6 mph51%29.98 "HgN/A
7:20 pm55 °FPassing clouds.9 mph47%29.98 "HgN/A
6:50 pm57 °FPassing clouds.6 mph36%29.98 "HgN/A
6:20 pm55 °FSunny.2 mph38%29.98 "Hg10 mi
5:50 pm55 °FSunny.3 mph41%29.98 "Hg10 mi
5:20 pm55 °FSunny.2 mph41%30.01 "Hg10 mi
4:50 pm55 °FSunny.5 mph41%30.01 "Hg10 mi
4:20 pm55 °FSunny.2 mph44%30.01 "Hg10 mi
3:50 pm54 °FSunny.3 mph44%30.01 "Hg10 mi
3:20 pm54 °FSunny.2 mph47%30.01 "Hg10 mi
2:50 pm54 °FPassing clouds.5 mph47%30.01 "HgN/A
2:20 pm54 °FSunny.2 mph47%30.01 "Hg10 mi
1:50 pm52 °FPassing clouds.5 mph54%30.01 "HgN/A
12:50 pm52 °FPartly sunny.2 mph54%30.04 "HgN/A
12:20 pm52 °FScattered clouds.3 mph54%30.04 "HgN/A
11:50 am50 °FScattered clouds.3 mph54%30.04 "HgN/A
11:20 am52 °FScattered clouds.10 mph54%30.04 "HgN/A
10:50 am52 °FScattered clouds.5 mph58%30.04 "HgN/A
9:50 am48 °FPassing clouds.5 mph66%30.07 "HgN/A
9:20 am48 °FPassing clouds.6 mph71%30.07 "HgN/A
8:50 am45 °FPassing clouds.5 mph71%30.07 "HgN/A
8:20 am43 °FPassing clouds.3 mph76%30.07 "HgN/A
7:50 am41 °FPassing clouds.3 mph76%30.07 "HgN/A
7:20 am39 °FScattered clouds.3 mph81%30.04 "HgN/A
6:50 am39 °FScattered clouds.3 mph81%30.04 "HgN/A
6:20 am39 °FScattered clouds.3 mph81%30.07 "HgN/A
5:50 am39 °FPassing clouds.2 mph81%30.04 "HgN/A
5:20 am39 °FPassing clouds.1 mph81%30.04 "HgN/A
4:50 am41 °FPartly cloudy.2 mph81%30.04 "HgN/A
4:20 am41 °FSprinkles. Passing clouds.5 mph81%30.04 "HgN/A
3:50 am41 °FSprinkles. Partly cloudy.7 mph76%30.04 "HgN/A
3:20 am41 °FPartly cloudy.7 mph76%30.04 "HgN/A
2:50 am41 °FPassing clouds.5 mph76%30.04 "HgN/A
2:20 am41 °FPassing clouds.5 mph76%30.04 "HgN/A
1:50 am41 °FPassing clouds.5 mph76%30.04 "HgN/A
1:20 am41 °FPassing clouds.3 mph70%30.04 "HgN/A
12:50 am43 °FPartly cloudy.5 mph66%30.04 "HgN/A
12:20 am43 °FPassing clouds.2 mph71%30.04 "HgN/A
11:50 pm
Fri, Apr 28
43 °FClear.2 mph66%30.04 "Hg10 mi
Weather by CustomWeather, © 2017

See weather overviewHow to use our weather pages